HULIANWANG DIGUI-154

导读 | 豆包AI

HULIANWANG DIGUI-154卫星由中国于2026年1月19日发射,该卫星归属低轨卫星互联网星座体系,依托国内成熟的航天发射技术完成入轨部署。它将进一步拓展中国低轨卫星网络的覆盖范围,提升全球互联网接入服务能力,为物联网、移动通信等领域提供空间基础设施支撑,推动天地一体化信息网络建设。

Basic Information
目录编号:
67530
目录名称:
HULIANWANG DIGUI-154
国际标识:
2026-013J
轨道中心:
EARTH
卫星名称:
HULIANWANG DIGUI-154
卫星全名:
HULIANWANG DIGUI-154
卫星状态:
在轨 (已飞行75 天)
发射日期:
2026-01-19 UTC
国别 :
中国 (CN)
星等 :
--
Orbit Information
数据来源 国际轨道数据 AOE轨道数据
星历时间 2026-04-04T01:45:11+0800
9小时前
查看轨道信息
2026-04-02T08:00:00+0800
2天前
查看轨道信息
半长轴 7527.45km 7527.443km
偏心率 0.0000174 0.0001045
轨道倾角 50.006° 50.012°
近地点辐角 184.985° 175.043°
升交点赤经 262.289° 268.531°
平近点角 175.102° 134.414°
近地点 1149.182km 1148.519km
远地点 1149.444km 1150.093km
周期 108.326分钟 108.326分钟
每日圈数 13.293243 13.293264
Detailed Information
使用方式:
暂无
2D Orbit Map
3D Orbit Map
Orbit Altitude Analysis Chart
Orbit Inclination Analysis Chart
Orbit Comprehensive Analysis Chart
View Comprehensive Chart